Grand Island, NE

5:15 PM CDT on March 24, 2017 (GMT -0500)
Central Nebraska Regional

Weather History for KGRI - March, 2014

Change the Weather History Date:

Sunday, March 2, 2014

  Actual Average Record
Temperature  
Mean Temperature 1 °F 34 °F  
Max Temperature 6 °F 45 °F 79 °F (1974)
Min Temperature -5 °F 23 °F -5 °F (1960)
Degree Days  
Heating Degree Days 64 31  
Month to date heating degree days 120 62  
Since 1 July heating degree days 4955 4823  
Cooling Degree Days 0 0  
Month to date cooling degree days 0 0  
Year to date cooling degree days 0 0  
Moisture  
Dew Point -13 °F    
Average Humidity 55    
Maximum Humidity 68    
Minimum Humidity 41    
Precipitation  
Precipitation 0.00 in 0.04 in 0.75 in (1979)
Month to date precipitation 0.01 0.07  
Year to date precipitation 0.66 1.28  
Snow  
Snow 0.00 in 0.20 in 5.60 in (1993)
Month to date snowfall 0.1 0.4  
Since 1 July snowfall 13.6 22.5  
Snow Depth 0.00 in    
Sea Level Pressure  
Sea Level Pressure 30.63 in    
Wind  
Wind Speed 13 mph (North)    
Max Wind Speed 21 mph    
Max Gust Speed 24 mph    
Visibility 10 miles    
Events      
T = Trace of Precipitation, MM = Missing Value Source: NWS Daily Summary

Daily Weather History Graph

Daily Weather History Graph

Search for Another Location

Airport or City:

Trip Planner

Search our weather history database for the weather conditions in past years. The results will help you decide how hot, cold, wet, or windy it might be!

Date:

Astronomy

Mar. 02, 2014 Rise Set
Actual Time 7:05 AM CST 6:25 PM CST
Civil Twilight 6:38 AM CST 6:53 PM CST
Nautical Twilight 6:06 AM CST 7:24 PM CST
Astronomical Twilight 5:34 AM CST 7:56 PM CST
Moon 7:36 AM CST (3/2) 8:24 PM CST (3/2)
Length of Visible Light 12h 14m
Length of Day
11h 19m
Waxing Crescent, 3% of the Moon is Illuminated
Mar 2
Waxing Crescent
Mar 8
First Quarter
Mar 16
Full
Mar 23
Last Quarter
Mar 30
New

Hourly Weather History & Observations

Time (CST) Temp. Windchill Dew Point Humidity Pressure Visibility Wind Dir Wind Speed Gust Speed Precip Events Conditions
12:53 AM -0.9 °F -21.9 °F -11.0 °F 62% 30.59 in 10.0 mi North 17.3 mph - N/A   Overcast
1:53 AM -0.9 °F -19.9 °F -11.0 °F 62% 30.63 in 10.0 mi North 13.8 mph - N/A   Overcast
2:53 AM -2.9 °F -25.0 °F -11.9 °F 65% 30.62 in 10.0 mi North 18.4 mph - N/A   Overcast
3:43 AM -4.0 °F -24.5 °F -13.0 °F 65% 30.49 in 10.0 mi NNE 15.0 mph - N/A   Mostly Cloudy
3:50 AM -4.0 °F -25.2 °F -13.0 °F 65% 30.48 in 10.0 mi NNE 16.1 mph - N/A   Scattered Clouds
3:53 AM -4.0 °F -25.2 °F -13.0 °F 65% 30.63 in 10.0 mi North 16.1 mph - N/A   Scattered Clouds
4:53 AM -5.1 °F -26.6 °F -13.0 °F 69% 30.65 in 10.0 mi North 16.1 mph - N/A   Mostly Cloudy
5:02 AM -5.1 °F -25.9 °F -14.1 °F 65% 30.51 in 10.0 mi North 15.0 mph - N/A   Mostly Cloudy
5:09 AM -5.1 °F -26.6 °F -13.0 °F 69% 30.51 in 10.0 mi North 16.1 mph - N/A   Scattered Clouds
5:53 AM -5.1 °F -25.9 °F -14.1 °F 65% 30.65 in 10.0 mi North 15.0 mph - N/A   Clear
6:53 AM -5.1 °F -26.6 °F -15.0 °F 62% 30.66 in 10.0 mi North 16.1 mph - N/A   Mostly Cloudy
7:53 AM -4.0 °F -24.5 °F -15.0 °F 59% 30.68 in 10.0 mi North 15.0 mph - N/A   Overcast
8:53 AM -4.0 °F -23.7 °F -17.0 °F 54% 30.71 in 10.0 mi North 13.8 mph - N/A   Overcast
9:53 AM -2.9 °F -23.8 °F -16.1 °F 54% 30.69 in 10.0 mi North 16.1 mph - N/A   Overcast
10:53 AM -0.9 °F -19.9 °F -16.1 °F 49% 30.70 in 10.0 mi North 13.8 mph - N/A   Overcast
11:53 AM -0.0 °F -18.7 °F -15.0 °F 49% 30.69 in 10.0 mi NNE 13.8 mph 19.6 mph N/A   Overcast
12:53 PM 3.9 °F -13.0 °F -14.1 °F 43% 30.67 in 10.0 mi North 12.7 mph - N/A   Overcast
1:53 PM 6.1 °F -11.6 °F -13.0 °F 41% 30.63 in 10.0 mi North 15.0 mph - N/A   Clear
2:53 PM 5.0 °F -12.3 °F -13.0 °F 43% 30.63 in 10.0 mi North 13.8 mph - N/A   Clear
3:53 PM 6.1 °F -10.9 °F -13.0 °F 41% 30.61 in 10.0 mi North 13.8 mph - N/A   Clear
4:53 PM 5.0 °F -13.6 °F -13.0 °F 43% 30.61 in 10.0 mi NNE 16.1 mph - N/A   Clear
5:53 PM 3.9 °F -12.2 °F -13.0 °F 46% 30.61 in 10.0 mi NNE 11.5 mph - N/A   Clear
6:53 PM 1.9 °F -13.8 °F -14.1 °F 47% 30.63 in 10.0 mi NNE 10.4 mph - N/A   Clear
7:53 PM 1.9 °F -12.9 °F -11.9 °F 52% 30.64 in 10.0 mi NE 9.2 mph - N/A   Clear
8:53 PM 1.0 °F -12.9 °F -13.0 °F 52% 30.64 in 10.0 mi NNE 8.1 mph - N/A   Clear
9:53 PM -0.9 °F -11.0 °F -11.9 °F 60% 30.68 in 10.0 mi North 4.6 mph - N/A   Clear
10:53 PM -2.0 °F -10.1 °F -11.0 °F 66% 30.69 in 10.0 mi NNE 3.5 mph - N/A   Clear
11:53 PM -2.0 °F - -11.0 °F 66% 30.68 in 10.0 mi Calm Calm - N/A   Clear